RYR54Q LPMA-LIMC

Flight info

Callsign RYR54Q
Flight time N/A
Altitude 36000
Route DEGUN1W DEGUN DCT RIVRO DCT TOSDI DCT ZMR DCT NEA DCT DGO DCT LPA DCT GOSVI DCT TOPTU DCT TOU DCT GAI DCT MEN DCT NINUN DCT LATAM DCT ROMAM/N0455F370 DCT ETIDO DCT NEDRU DCT RILIP DCT EMMEF DCT LAPRI/N0452F380 DCT MOGBO/N0452F370 DCT KODOK DCT TOP/N0388F190 M135 ASTIG ASTIG3E
Aircraft B738/M-SDE2E3FGHIRWXY/LB1

Departure

Time 2026-05-04 17:25
Airport Cristiano Ronaldo International Airport (LPMA)

Arrival

Time N/A
Airport Milan Malpensa International Airport (LIMC)
Time Latitude Longitude Altitude Speed Heading
2026-05-04 16:28 32.69338 -16.77698 206 ft 0 kts 137°
2026-05-04 17:11 32.69341 -16.77702 190 ft 2 kts 136°
2026-05-04 17:12 32.69353 -16.77715 208 ft 2 kts 136°
2026-05-04 17:12 32.69374 -16.77745 203 ft 2 kts 84°
2026-05-04 17:13 32.69368 -16.77761 206 ft 0 kts 48°
2026-05-04 17:17 32.69389 -16.77733 201 ft 3 kts 48°
2026-05-04 17:18 32.69409 -16.77707 198 ft 8 kts 46°
2026-05-04 17:18 32.69515 -16.77577 190 ft 11 kts 46°
2026-05-04 17:19 32.69619 -16.77448 190 ft 10 kts 46°
2026-05-04 17:19 32.69717 -16.77328 200 ft 10 kts 46°
2026-05-04 17:20 32.69810 -16.77213 199 ft 9 kts 45°
2026-05-04 17:20 32.69930 -16.77178 206 ft 10 kts 359°
2026-05-04 17:20 32.70012 -16.77174 205 ft 13 kts 18°
2026-05-04 17:21 32.70185 -16.76983 212 ft 25 kts 44°
2026-05-04 17:21 32.70467 -16.76655 212 ft 28 kts 44°
2026-05-04 17:22 32.70551 -16.76557 207 ft 11 kts 44°
2026-05-04 17:22 32.70614 -16.76502 217 ft 11 kts 19°
2026-05-04 17:23 32.70674 -16.76422 212 ft 6 kts 159°
2026-05-04 17:23 32.70640 -16.76445 208 ft 6 kts 229°
2026-05-04 17:23 32.70588 -16.76514 211 ft 0 kts 224°
2026-05-04 17:24 32.69927 -16.77285 202 ft 135 kts 225°
2026-05-04 17:25 32.69145 -16.78209 417 ft 171 kts 224°
2026-05-04 17:25 32.67092 -16.79838 2016 ft 183 kts 194°
2026-05-04 17:26 32.64334 -16.79652 2957 ft 226 kts 168°
2026-05-04 17:26 32.59293 -16.77602 4246 ft 290 kts 136°
2026-05-04 17:27 32.58045 -16.73119 5726 ft 300 kts 85°
2026-05-04 17:27 32.59434 -16.68603 6064 ft 290 kts 64°
2026-05-04 17:28 32.61134 -16.64309 6074 ft 285 kts 64°
2026-05-04 17:29 32.63588 -16.57913 6086 ft 286 kts 65°
2026-05-04 17:29 32.66859 -16.52146 6087 ft 284 kts 42°
2026-05-04 17:30 32.71177 -16.47322 6084 ft 284 kts 42°
2026-05-04 17:31 32.74042 -16.44094 6080 ft 282 kts 42°
2026-05-04 17:31 32.78241 -16.39323 6910 ft 286 kts 43°
2026-05-04 17:32 32.81130 -16.36027 8502 ft 291 kts 43°
2026-05-04 17:33 32.85600 -16.30915 10715 ft 303 kts 43°
2026-05-04 17:33 32.87128 -16.29164 11340 ft 310 kts 42°
2026-05-04 17:34 32.92264 -16.23280 12059 ft 369 kts 42°
2026-05-04 17:34 32.94107 -16.21163 13080 ft 367 kts 43°
2026-05-04 17:35 32.99805 -16.14606 15054 ft 387 kts 43°
2026-05-04 17:35 33.03722 -16.10093 16196 ft 397 kts 42°
2026-05-04 17:35 33.05714 -16.07796 16778 ft 400 kts 42°
2026-05-04 17:36 33.07693 -16.05513 17344 ft 404 kts 42°
2026-05-04 17:36 33.09723 -16.03169 17875 ft 408 kts 42°
2026-05-04 17:36 33.11771 -16.00804 18430 ft 412 kts 42°
2026-05-04 17:36 33.13842 -15.98410 18874 ft 416 kts 42°
2026-05-04 17:37 33.15930 -15.95994 19346 ft 420 kts 42°
2026-05-04 17:37 33.18035 -15.93557 19843 ft 424 kts 42°
2026-05-04 17:37 33.20162 -15.91093 20315 ft 428 kts 42°
2026-05-04 17:37 33.22306 -15.88608 20762 ft 432 kts 42°
2026-05-04 17:38 33.24467 -15.86101 21218 ft 435 kts 42°
2026-05-04 17:38 33.26618 -15.83603 21667 ft 439 kts 41°
2026-05-04 17:38 33.28818 -15.81046 22095 ft 443 kts 41°
2026-05-04 17:38 33.31034 -15.78469 22533 ft 447 kts 41°
2026-05-04 17:39 33.35521 -15.73245 23382 ft 454 kts 41°
2026-05-04 17:39 33.37793 -15.70596 23752 ft 458 kts 41°
2026-05-04 17:39 33.40080 -15.67929 24106 ft 460 kts 41°
2026-05-04 17:40 33.42379 -15.65248 24503 ft 462 kts 41°
2026-05-04 17:40 33.44696 -15.62645 24846 ft 464 kts 39°
2026-05-04 17:40 33.47096 -15.60039 25186 ft 467 kts 39°
2026-05-04 17:40 33.49520 -15.57443 25526 ft 469 kts 39°
2026-05-04 17:41 33.51961 -15.54834 25864 ft 471 kts 39°
2026-05-04 17:41 33.54411 -15.52205 26183 ft 474 kts 39°
2026-05-04 17:41 33.56860 -15.49565 26600 ft 474 kts 39°
2026-05-04 17:41 33.59301 -15.46920 27076 ft 472 kts 39°
2026-05-04 17:42 33.61727 -15.44281 27576 ft 470 kts 39°
2026-05-04 17:42 33.64145 -15.41645 28031 ft 469 kts 39°
2026-05-04 17:42 33.66526 -15.39047 28430 ft 469 kts 39°
2026-05-04 17:42 33.68939 -15.36412 28850 ft 469 kts 39°
2026-05-04 17:43 33.71349 -15.33777 29314 ft 468 kts 39°
2026-05-04 17:43 33.73755 -15.31146 29759 ft 467 kts 39°
2026-05-04 17:43 33.76156 -15.28518 30173 ft 467 kts 39°
2026-05-04 17:43 33.78555 -15.25891 30520 ft 467 kts 39°
2026-05-04 17:44 33.80951 -15.23265 30886 ft 466 kts 39°
2026-05-04 17:44 33.83343 -15.20641 31218 ft 465 kts 39°
2026-05-04 17:44 33.85736 -15.18015 31546 ft 465 kts 39°
2026-05-04 17:44 33.88092 -15.15427 31865 ft 465 kts 39°
2026-05-04 17:45 33.90476 -15.12806 32226 ft 464 kts 39°
2026-05-04 17:45 33.92856 -15.10186 32557 ft 463 kts 39°
2026-05-04 17:45 33.95233 -15.07569 32876 ft 463 kts 39°
2026-05-04 17:45 33.97606 -15.04954 33189 ft 462 kts 39°
2026-05-04 17:46 33.99974 -15.02342 33529 ft 461 kts 39°
2026-05-04 17:46 34.02337 -14.99733 33846 ft 460 kts 39°
2026-05-04 17:46 34.04667 -14.97160 34118 ft 460 kts 39°
2026-05-04 17:46 34.07027 -14.94551 34372 ft 460 kts 39°
2026-05-04 17:47 34.09385 -14.91942 34608 ft 460 kts 39°
2026-05-04 17:47 34.11743 -14.89332 34806 ft 461 kts 39°
2026-05-04 17:47 34.14106 -14.86714 35008 ft 462 kts 39°
2026-05-04 17:47 34.16472 -14.84090 35221 ft 462 kts 39°
2026-05-04 17:48 34.18837 -14.81465 35434 ft 462 kts 39°
2026-05-04 17:48 34.21215 -14.78825 35466 ft 467 kts 39°
2026-05-04 17:48 34.26008 -14.73498 35557 ft 476 kts 39°
2026-05-04 17:49 34.30919 -14.68029 35644 ft 484 kts 39°
2026-05-04 17:49 34.35911 -14.62459 35719 ft 492 kts 39°
2026-05-04 17:50 34.40976 -14.56797 35791 ft 499 kts 39°
2026-05-04 17:50 34.46070 -14.51091 35933 ft 504 kts 39°
2026-05-04 17:51 34.48644 -14.48204 36114 ft 503 kts 39°
2026-05-04 17:51 34.51212 -14.45321 36147 ft 505 kts 39°
2026-05-04 17:51 34.56368 -14.39526 36162 ft 505 kts 39°
2026-05-04 17:52 34.61508 -14.33739 36158 ft 503 kts 39°
2026-05-04 17:52 34.66633 -14.27959 36165 ft 502 kts 39°
2026-05-04 17:53 34.71712 -14.22222 36161 ft 502 kts 39°
2026-05-04 17:53 34.76820 -14.16442 36161 ft 501 kts 39°
2026-05-04 17:54 34.81925 -14.10655 36166 ft 501 kts 39°
2026-05-04 17:54 34.87026 -14.04863 36166 ft 502 kts 39°
2026-05-04 17:55 34.92100 -13.99091 36167 ft 503 kts 39°
2026-05-04 17:55 34.97215 -13.93262 36168 ft 504 kts 39°
2026-05-04 17:56 35.02334 -13.87417 36166 ft 505 kts 40°
2026-05-04 17:56 35.07460 -13.81554 36169 ft 506 kts 40°
2026-05-04 17:57 35.12560 -13.75710 36165 ft 507 kts 40°
2026-05-04 17:57 35.17698 -13.69812 36167 ft 507 kts 40°
2026-05-04 17:58 35.22841 -13.63897 36169 ft 508 kts 40°
2026-05-04 17:58 35.27987 -13.57968 36165 ft 508 kts 39°
2026-05-04 17:59 35.33132 -13.52030 36168 ft 508 kts 39°
2026-05-04 18:00 35.40813 -13.43142 36167 ft 509 kts 39°
2026-05-04 18:00 35.45955 -13.37180 36163 ft 509 kts 39°
2026-05-04 18:01 35.51093 -13.31211 36165 ft 509 kts 39°
2026-05-04 18:01 35.56228 -13.25235 36171 ft 509 kts 39°
2026-05-04 18:02 35.63884 -13.16304 36171 ft 508 kts 39°
2026-05-04 18:02 35.69004 -13.10316 36172 ft 507 kts 39°
2026-05-04 18:03 35.74110 -13.04335 36166 ft 506 kts 39°
2026-05-04 18:03 35.79171 -12.98396 36172 ft 505 kts 39°
2026-05-04 18:04 35.84248 -12.92426 36160 ft 504 kts 39°
2026-05-04 18:05 35.91845 -12.83473 36162 ft 503 kts 39°
2026-05-04 18:05 35.96894 -12.77509 36165 ft 502 kts 39°
2026-05-04 18:06 36.04418 -12.68600 36166 ft 501 kts 39°
2026-05-04 18:06 36.09447 -12.62632 36168 ft 501 kts 39°
2026-05-04 18:07 36.14467 -12.56662 36167 ft 500 kts 39°
2026-05-04 18:07 36.19481 -12.50690 36164 ft 500 kts 39°
2026-05-04 18:08 36.24461 -12.44747 36164 ft 500 kts 39°
2026-05-04 18:08 36.29467 -12.38761 36167 ft 500 kts 39°
2026-05-04 18:09 36.39440 -12.26804 36164 ft 501 kts 39°
2026-05-04 18:10 36.44444 -12.20786 36165 ft 501 kts 39°
2026-05-04 18:10 36.49452 -12.14753 36164 ft 501 kts 39°
2026-05-04 18:11 36.54458 -12.08712 36163 ft 502 kts 39°
2026-05-04 18:11 36.59467 -12.02654 36162 ft 502 kts 39°
2026-05-04 18:12 36.64441 -11.96627 36161 ft 503 kts 39°
2026-05-04 18:12 36.69449 -11.90548 36159 ft 503 kts 39°
2026-05-04 18:13 36.74454 -11.84460 36160 ft 503 kts 39°
2026-05-04 18:14 36.81929 -11.75346 36160 ft 503 kts 39°
2026-05-04 18:14 36.86929 -11.69235 36158 ft 503 kts 39°
2026-05-04 18:15 36.96925 -11.56984 36158 ft 503 kts 39°
2026-05-04 18:16 37.01916 -11.50848 36160 ft 503 kts 39°
2026-05-04 18:16 37.06869 -11.44747 36159 ft 503 kts 39°
2026-05-04 18:17 37.14336 -11.35528 36158 ft 502 kts 39°
2026-05-04 18:18 37.21751 -11.26346 36155 ft 501 kts 40°
2026-05-04 18:18 37.26707 -11.20195 36157 ft 501 kts 40°
2026-05-04 18:19 37.34119 -11.10971 36152 ft 500 kts 40°
2026-05-04 18:19 37.39049 -11.04821 36151 ft 499 kts 40°
2026-05-04 18:20 37.43938 -10.98711 36150 ft 499 kts 40°
2026-05-04 18:20 37.48855 -10.92554 36150 ft 498 kts 40°
2026-05-04 18:21 37.53764 -10.86394 36146 ft 498 kts 40°
2026-05-04 18:21 37.58670 -10.80227 36152 ft 498 kts 40°
2026-05-04 18:22 37.63535 -10.74099 36148 ft 498 kts 40°
2026-05-04 18:22 37.68431 -10.67919 36146 ft 498 kts 40°
2026-05-04 18:23 37.73321 -10.61734 36141 ft 498 kts 40°
2026-05-04 18:23 37.78208 -10.55542 36140 ft 498 kts 40°
2026-05-04 18:24 37.83094 -10.49338 36142 ft 498 kts 40°
2026-05-04 18:24 37.87947 -10.43164 36139 ft 498 kts 40°
2026-05-04 18:25 37.92832 -10.36937 36138 ft 499 kts 40°
2026-05-04 18:25 37.97720 -10.30693 36139 ft 499 kts 40°
2026-05-04 18:26 38.02607 -10.24439 36138 ft 500 kts 40°
2026-05-04 18:26 38.07465 -10.18209 36129 ft 500 kts 40°
2026-05-04 18:27 38.12356 -10.11923 36134 ft 501 kts 40°
2026-05-04 18:27 38.17248 -10.05624 36132 ft 501 kts 40°
2026-05-04 18:28 38.22143 -9.99308 36133 ft 502 kts 40°
2026-05-04 18:28 38.27006 -9.93021 36134 ft 502 kts 40°
2026-05-04 18:29 38.31903 -9.86677 36130 ft 502 kts 40°
2026-05-04 18:29 38.36799 -9.80320 36131 ft 503 kts 40°
2026-05-04 18:30 38.44144 -9.70761 36126 ft 503 kts 39°
2026-05-04 18:31 38.49009 -9.64413 36122 ft 504 kts 39°
2026-05-04 18:31 38.53905 -9.58011 36113 ft 504 kts 39°
2026-05-04 18:32 38.58797 -9.51600 36107 ft 504 kts 39°
2026-05-04 18:32 38.63693 -9.45172 36107 ft 504 kts 39°
2026-05-04 18:33 38.68550 -9.38782 36106 ft 505 kts 39°
2026-05-04 18:33 38.73470 -9.32372 36110 ft 504 kts 38°
2026-05-04 18:34 38.78440 -9.26035 36104 ft 504 kts 38°
2026-05-04 18:34 38.83417 -9.19683 36102 ft 505 kts 38°
2026-05-04 18:35 38.88377 -9.13315 36103 ft 504 kts 38°
2026-05-04 18:35 38.93294 -9.06976 36108 ft 505 kts 38°
2026-05-04 18:36 38.98247 -9.00574 36112 ft 505 kts 39°
2026-05-04 18:36 39.03205 -8.94153 36098 ft 506 kts 39°
2026-05-04 18:37 39.08160 -8.87724 36105 ft 506 kts 39°
2026-05-04 18:37 39.13114 -8.81282 36097 ft 506 kts 39°
2026-05-04 18:38 39.18033 -8.74872 36101 ft 506 kts 39°
2026-05-04 18:38 39.22984 -8.68407 36098 ft 507 kts 39°
2026-05-04 18:39 39.27935 -8.61929 36093 ft 507 kts 39°
2026-05-04 18:39 39.32882 -8.55441 36089 ft 507 kts 39°
2026-05-04 18:40 39.37791 -8.48988 36090 ft 507 kts 39°
2026-05-04 18:40 39.42732 -8.42481 36085 ft 507 kts 39°
2026-05-04 18:41 39.47671 -8.35963 36089 ft 507 kts 39°
2026-05-04 18:41 39.52606 -8.29436 36089 ft 507 kts 39°
2026-05-04 18:42 39.57506 -8.22940 36082 ft 508 kts 39°
2026-05-04 18:42 39.62438 -8.16388 36077 ft 508 kts 40°
2026-05-04 18:43 39.67369 -8.09823 36073 ft 508 kts 40°
2026-05-04 18:43 39.72296 -8.03249 36074 ft 508 kts 40°
2026-05-04 18:44 39.77218 -7.96667 36066 ft 508 kts 40°
2026-05-04 18:44 39.82136 -7.90078 36063 ft 508 kts 40°
2026-05-04 18:45 39.87055 -7.83470 36076 ft 508 kts 40°
2026-05-04 18:45 39.91940 -7.76896 36063 ft 508 kts 40°
2026-05-04 18:46 39.96849 -7.70273 36065 ft 508 kts 40°
2026-05-04 18:46 40.01763 -7.63631 36064 ft 508 kts 40°
2026-05-04 18:47 40.06669 -7.56983 36053 ft 508 kts 40°
2026-05-04 18:47 40.11569 -7.50329 36051 ft 509 kts 40°
2026-05-04 18:48 40.16438 -7.43704 36039 ft 509 kts 41°
2026-05-04 18:48 40.21336 -7.37024 36037 ft 509 kts 41°
2026-05-04 18:49 40.26226 -7.30338 36036 ft 508 kts 41°
2026-05-04 18:49 40.31115 -7.23640 36033 ft 509 kts 41°
2026-05-04 18:50 40.35972 -7.16972 36036 ft 509 kts 41°
2026-05-04 18:50 40.40857 -7.10250 36032 ft 509 kts 41°
2026-05-04 18:51 40.45738 -7.03517 36033 ft 509 kts 41°
2026-05-04 18:51 40.50617 -6.96771 36028 ft 509 kts 42°
2026-05-04 18:52 40.55486 -6.90025 36035 ft 509 kts 42°
2026-05-04 18:52 40.60326 -6.83304 36029 ft 509 kts 42°
2026-05-04 18:53 40.65189 -6.76537 36032 ft 509 kts 42°
2026-05-04 18:53 40.70049 -6.69757 36030 ft 509 kts 42°
2026-05-04 18:54 40.74912 -6.62957 36036 ft 509 kts 43°
2026-05-04 18:54 40.79765 -6.56157 36032 ft 509 kts 43°
2026-05-04 18:55 40.84611 -6.49350 36032 ft 509 kts 43°
2026-05-04 18:55 40.91872 -6.39120 36025 ft 508 kts 43°
2026-05-04 18:56 40.96712 -6.32284 36026 ft 509 kts 43°
2026-05-04 18:56 41.01631 -6.25657 36024 ft 506 kts 39°
2026-05-04 18:57 41.06874 -6.19444 36028 ft 505 kts 37°
2026-05-04 18:57 41.12153 -6.13286 36029 ft 505 kts 37°
2026-05-04 18:58 41.17395 -6.07061 36018 ft 506 kts 38°
2026-05-04 18:58 41.22613 -6.00793 36018 ft 506 kts 38°
2026-05-04 18:59 41.27825 -5.94509 36009 ft 506 kts 38°
2026-05-04 18:59 41.33008 -5.88254 36011 ft 506 kts 38°
2026-05-04 19:00 41.38219 -5.81953 36005 ft 506 kts 38°
2026-05-04 19:00 41.43430 -5.75637 36000 ft 505 kts 39°
2026-05-04 19:01 41.48602 -5.69356 35993 ft 505 kts 39°
2026-05-04 19:01 41.53311 -5.62371 36000 ft 511 kts 54°
2026-05-04 19:02 41.56556 -5.53916 36007 ft 513 kts 65°
2026-05-04 19:02 41.59372 -5.45133 35993 ft 513 kts 66°
2026-05-04 19:03 41.62201 -5.36367 35985 ft 513 kts 65°
2026-05-04 19:03 41.65075 -5.27623 35987 ft 513 kts 65°
2026-05-04 19:04 41.67957 -5.18894 35975 ft 513 kts 65°
2026-05-04 19:04 41.70834 -5.10154 35969 ft 513 kts 65°
2026-05-04 19:05 41.73684 -5.01457 35974 ft 513 kts 65°
2026-05-04 19:05 41.76538 -4.92712 35970 ft 513 kts 66°
2026-05-04 19:06 41.79386 -4.83958 35972 ft 512 kts 66°
2026-05-04 19:06 41.82231 -4.75187 35972 ft 512 kts 66°
2026-05-04 19:07 41.85069 -4.66409 35972 ft 512 kts 66°
2026-05-04 19:07 41.87881 -4.57684 35983 ft 512 kts 66°
2026-05-04 19:08 41.90706 -4.48888 35987 ft 512 kts 66°
2026-05-04 19:08 41.93522 -4.40092 35989 ft 512 kts 66°
2026-05-04 19:09 41.96328 -4.31297 35987 ft 512 kts 66°
2026-05-04 19:09 41.99128 -4.22494 35996 ft 512 kts 66°
2026-05-04 19:10 42.01903 -4.13742 35994 ft 512 kts 67°
2026-05-04 19:10 42.04777 -4.04975 35993 ft 512 kts 64°
2026-05-04 19:11 42.07861 -3.96345 36004 ft 511 kts 64°
2026-05-04 19:11 42.10940 -3.87764 36003 ft 511 kts 64°
2026-05-04 19:12 42.15509 -3.74774 35998 ft 511 kts 64°
2026-05-04 19:13 42.18531 -3.66094 35995 ft 511 kts 65°
2026-05-04 19:13 42.21038 -3.58878 36001 ft 510 kts 65°
2026-05-04 19:14 42.24046 -3.50199 35997 ft 510 kts 65°
2026-05-04 19:14 42.27534 -3.40106 35998 ft 509 kts 65°
2026-05-04 19:15 42.30037 -3.32838 35998 ft 509 kts 65°
2026-05-04 19:15 42.33501 -3.22751 36006 ft 508 kts 65°
2026-05-04 19:16 42.35963 -3.15555 36017 ft 507 kts 65°
2026-05-04 19:16 42.38918 -3.06897 36020 ft 506 kts 65°
2026-05-04 19:17 42.41860 -2.98251 36011 ft 505 kts 65°
2026-05-04 19:17 42.44556 -2.89492 36004 ft 503 kts 75°
2026-05-04 19:18 42.45581 -2.80263 36015 ft 498 kts 91°
2026-05-04 19:18 42.45645 -2.70901 36007 ft 497 kts 92°
2026-05-04 19:19 42.45714 -2.61544 36000 ft 497 kts 91°
2026-05-04 19:19 42.45839 -2.52187 36000 ft 497 kts 91°
2026-05-04 19:20 42.45973 -2.42831 35991 ft 497 kts 91°
2026-05-04 19:20 42.46130 -2.33476 35991 ft 498 kts 88°
2026-05-04 19:21 42.47357 -2.24224 35998 ft 501 kts 78°
2026-05-04 19:21 42.48977 -2.15034 35994 ft 501 kts 78°
2026-05-04 19:22 42.50563 -2.05821 35998 ft 502 kts 79°
2026-05-04 19:22 42.52083 -1.96643 36002 ft 502 kts 79°
2026-05-04 19:23 42.53590 -1.87397 36006 ft 502 kts 79°
2026-05-04 19:23 42.55090 -1.78152 36015 ft 502 kts 79°
2026-05-04 19:24 42.56586 -1.68905 36015 ft 501 kts 79°
2026-05-04 19:24 42.58073 -1.59661 36016 ft 501 kts 79°
2026-05-04 19:25 42.59552 -1.50420 36012 ft 501 kts 79°
2026-05-04 19:25 42.61022 -1.41185 36011 ft 500 kts 80°
2026-05-04 19:26 42.62485 -1.31955 35996 ft 500 kts 80°
2026-05-04 19:26 42.63933 -1.22775 36003 ft 500 kts 80°
2026-05-04 19:27 42.65384 -1.13539 35991 ft 499 kts 80°
2026-05-04 19:27 42.66824 -1.04313 35978 ft 499 kts 80°
2026-05-04 19:28 42.68255 -0.95096 35999 ft 498 kts 80°
2026-05-04 19:28 42.69679 -0.85867 35979 ft 498 kts 80°
2026-05-04 19:29 42.71095 -0.76640 35982 ft 499 kts 80°
2026-05-04 19:29 42.72502 -0.67419 35980 ft 498 kts 81°
2026-05-04 19:30 42.73896 -0.58234 35978 ft 498 kts 81°
2026-05-04 19:30 42.75289 -0.49002 35989 ft 498 kts 81°
2026-05-04 19:31 42.76674 -0.39765 35973 ft 498 kts 81°
2026-05-04 19:31 42.78052 -0.30535 35987 ft 497 kts 81°
2026-05-04 19:32 42.79795 -0.21411 35996 ft 500 kts 69°
2026-05-04 19:32 42.83242 -0.13172 35984 ft 503 kts 51°
2026-05-04 19:33 42.87694 -0.05827 35993 ft 503 kts 50°
2026-05-04 19:33 42.92164 0.01428 36000 ft 503 kts 50°
2026-05-04 19:34 42.96621 0.08795 35998 ft 503 kts 51°
2026-05-04 19:34 43.01046 0.16205 36009 ft 502 kts 51°
2026-05-04 19:35 43.05448 0.23615 36005 ft 501 kts 51°
2026-05-04 19:35 43.09843 0.31027 36007 ft 501 kts 51°
2026-05-04 19:36 43.14210 0.38403 36001 ft 501 kts 51°
2026-05-04 19:36 43.18596 0.45830 35999 ft 501 kts 52°
2026-05-04 19:37 43.22982 0.53276 35998 ft 501 kts 52°
2026-05-04 19:37 43.27361 0.60729 35990 ft 501 kts 52°
2026-05-04 19:38 43.31726 0.68177 35991 ft 500 kts 52°
2026-05-04 19:38 43.36062 0.75594 35989 ft 500 kts 52°
2026-05-04 19:39 43.40424 0.83075 35985 ft 500 kts 52°
2026-05-04 19:39 43.44775 0.90556 35980 ft 500 kts 52°
2026-05-04 19:40 43.49088 0.97991 35976 ft 500 kts 52°
2026-05-04 19:40 43.53425 1.05487 35972 ft 500 kts 52°
2026-05-04 19:41 43.57754 1.12989 35968 ft 500 kts 53°
2026-05-04 19:41 43.62077 1.20500 35965 ft 499 kts 53°
2026-05-04 19:42 43.66391 1.28013 35966 ft 499 kts 53°
2026-05-04 19:42 43.70651 1.35599 35965 ft 498 kts 55°
2026-05-04 19:43 43.74747 1.43328 35968 ft 498 kts 56°
2026-05-04 19:43 43.78828 1.51071 35964 ft 498 kts 56°
2026-05-04 19:44 43.82896 1.58747 35962 ft 498 kts 56°
2026-05-04 19:44 43.86995 1.66475 35953 ft 498 kts 56°
2026-05-04 19:45 43.91090 1.74219 35953 ft 498 kts 56°
2026-05-04 19:45 43.95178 1.81971 35953 ft 498 kts 56°
2026-05-04 19:46 43.99178 1.89818 35943 ft 497 kts 58°
2026-05-04 19:46 44.03084 1.97727 35949 ft 496 kts 58°
2026-05-04 19:47 44.06994 2.05654 35941 ft 496 kts 58°
2026-05-04 19:47 44.10905 2.13563 35943 ft 496 kts 58°
2026-05-04 19:48 44.14818 2.21479 35942 ft 496 kts 58°
2026-05-04 19:48 44.18704 2.29362 35937 ft 496 kts 58°
2026-05-04 19:49 44.22604 2.37297 35945 ft 495 kts 58°
2026-05-04 19:49 44.26494 2.45235 35939 ft 495 kts 58°
2026-05-04 19:50 44.30378 2.53181 35934 ft 495 kts 58°
2026-05-04 19:50 44.34234 2.61091 35940 ft 495 kts 58°
2026-05-04 19:51 44.38101 2.69047 35936 ft 495 kts 58°
2026-05-04 19:51 44.41962 2.77013 35941 ft 494 kts 58°
2026-05-04 19:52 44.45818 2.84990 35951 ft 494 kts 58°
2026-05-04 19:52 44.49669 2.92979 35942 ft 494 kts 58°
2026-05-04 19:53 44.53490 3.00929 35956 ft 495 kts 58°
2026-05-04 19:53 44.57336 3.08952 35958 ft 496 kts 58°
2026-05-04 19:54 44.61164 3.17012 35958 ft 496 kts 61°
2026-05-04 19:54 44.64615 3.25359 35963 ft 495 kts 64°
2026-05-04 19:55 44.67936 3.33833 35964 ft 495 kts 64°
2026-05-04 19:55 44.71282 3.42253 35970 ft 496 kts 63°
2026-05-04 19:56 44.74673 3.50715 35975 ft 496 kts 63°
2026-05-04 19:56 44.78056 3.59196 35966 ft 497 kts 63°
2026-05-04 19:57 44.81424 3.67706 35971 ft 496 kts 63°
2026-05-04 19:57 44.84783 3.76225 35971 ft 497 kts 64°
2026-05-04 19:58 44.88112 3.84694 35959 ft 497 kts 63°
2026-05-04 19:58 44.91458 3.93226 35959 ft 496 kts 64°
2026-05-04 19:59 44.94800 4.01774 35976 ft 496 kts 64°
2026-05-04 19:59 44.98132 4.10326 35975 ft 496 kts 64°
2026-05-04 20:00 45.01434 4.18830 35967 ft 496 kts 65°
2026-05-04 20:00 45.03766 4.27880 35977 ft 487 kts 83°
2026-05-04 20:01 45.04561 4.37343 35984 ft 483 kts 88°
2026-05-04 20:01 45.05204 4.46763 35981 ft 483 kts 88°
2026-05-04 20:02 45.05893 4.56241 35991 ft 484 kts 88°
2026-05-04 20:02 45.06600 4.65615 35985 ft 484 kts 88°
2026-05-04 20:03 45.07310 4.75055 35985 ft 484 kts 88°
2026-05-04 20:03 45.07898 4.82992 35989 ft 485 kts 88°
2026-05-04 20:04 45.08594 4.92501 36016 ft 484 kts 88°
2026-05-04 20:04 45.08933 4.97165 36272 ft 482 kts 88°
2026-05-04 20:04 45.09273 5.01886 36459 ft 483 kts 88°
2026-05-04 20:04 45.09613 5.06628 36611 ft 484 kts 88°
2026-05-04 20:05 45.09952 5.11383 36797 ft 485 kts 88°
2026-05-04 20:05 45.10283 5.16130 36977 ft 485 kts 89°
2026-05-04 20:05 45.10308 5.20892 36966 ft 484 kts 97°
2026-05-04 20:06 45.09734 5.30386 36969 ft 483 kts 99°
2026-05-04 20:06 45.09239 5.39860 36967 ft 482 kts 97°
2026-05-04 20:07 45.08867 5.49305 36988 ft 482 kts 97°
2026-05-04 20:07 45.08519 5.58776 36972 ft 482 kts 97°
2026-05-04 20:08 45.08152 5.68242 36977 ft 481 kts 97°
2026-05-04 20:08 45.07773 5.77697 36981 ft 480 kts 97°
2026-05-04 20:09 45.07328 5.87076 37004 ft 480 kts 99°
2026-05-04 20:09 45.06680 5.96478 37003 ft 479 kts 99°
2026-05-04 20:10 45.06017 6.05868 37021 ft 479 kts 99°
2026-05-04 20:10 45.05376 6.15263 37030 ft 481 kts 99°
2026-05-04 20:11 45.04738 6.24657 37038 ft 482 kts 99°
2026-05-04 20:11 45.04077 6.34152 37046 ft 483 kts 99°
2026-05-04 20:12 45.03389 6.43511 36908 ft 477 kts 99°
2026-05-04 20:12 45.03045 6.48147 36412 ft 472 kts 99°
2026-05-04 20:12 45.02698 6.52773 35709 ft 474 kts 100°
2026-05-04 20:12 45.02266 6.58503 34752 ft 479 kts 100°
2026-05-04 20:13 45.01909 6.63236 34039 ft 482 kts 100°
2026-05-04 20:13 45.01557 6.67945 33262 ft 483 kts 100°
2026-05-04 20:13 45.01213 6.72669 32477 ft 484 kts 100°
2026-05-04 20:13 45.00870 6.77416 31654 ft 486 kts 100°
2026-05-04 20:14 45.00530 6.82110 30828 ft 488 kts 100°
2026-05-04 20:14 45.00182 6.86887 30020 ft 488 kts 100°
2026-05-04 20:14 44.99831 6.91649 29064 ft 488 kts 100°
2026-05-04 20:14 44.99476 6.96427 28112 ft 488 kts 100°
2026-05-04 20:15 44.99120 7.01189 27146 ft 488 kts 99°
2026-05-04 20:15 44.98763 7.05955 26268 ft 484 kts 99°
2026-05-04 20:15 44.98419 7.10558 26047 ft 460 kts 99°
2026-05-04 20:15 44.98087 7.14972 25796 ft 446 kts 99°
2026-05-04 20:16 44.97918 7.19264 25320 ft 442 kts 93°
2026-05-04 20:16 44.97964 7.23597 24730 ft 441 kts 91°
2026-05-04 20:16 44.98061 7.27916 24153 ft 438 kts 91°
2026-05-04 20:16 44.98114 7.30808 23799 ft 435 kts 91°
2026-05-04 20:17 44.98186 7.36101 23041 ft 429 kts 91°
2026-05-04 20:17 44.98239 7.40290 22457 ft 425 kts 91°
2026-05-04 20:17 44.98298 7.44424 22192 ft 415 kts 91°
2026-05-04 20:17 44.98339 7.48456 21990 ft 411 kts 95°
2026-05-04 20:18 44.97997 7.52440 21804 ft 417 kts 105°
2026-05-04 20:18 44.97293 7.55769 21660 ft 417 kts 114°